TimeAEDT,TemperatureF,Dew PointF,Humidity,Sea Level PressureIn,VisibilityMPH,Wind Direction,Wind SpeedMPH,Gust SpeedMPH,PrecipitationIn,Events,Conditions,WindDirDegrees,DateUTC
12:00 AM,54,48,73,29.86,,North,5.8,,,,,0,2012-10-19 13:00:00
12:00 AM,55.4,48.2,77,29.86,6.2,North,5.8,-,N/A,,Scattered Clouds,360,2012-10-19 13:00:00
12:30 AM,51.8,48.2,88,29.86,6.2,North,1.2,-,N/A,,Unknown,360,2012-10-19 13:30:00
1:00 AM,51.8,46.4,82,29.86,6.2,Calm,Calm,-,N/A,,Unknown,0,2012-10-19 14:00:00
1:30 AM,51.8,46.4,82,29.86,6.2,North,4.6,-,N/A,,Unknown,10,2012-10-19 14:30:00
2:00 AM,50,46,81,29.83,,Calm,Calm,,,,,,2012-10-19 15:00:00
2:00 AM,50.0,46.4,87,29.83,6.2,Calm,Calm,-,N/A,,Unknown,0,2012-10-19 15:00:00
2:30 AM,48.2,46.4,93,29.83,6.2,Calm,Calm,-,N/A,,Unknown,0,2012-10-19 15:30:00
3:00 AM,51.8,46.4,82,29.83,6.2,SE,3.5,-,N/A,,Unknown,140,2012-10-19 16:00:00
3:30 AM,48.2,44.6,87,29.80,6.2,Calm,Calm,-,N/A,,Unknown,0,2012-10-19 16:30:00
4:00 AM,46.4,44.6,93,29.80,6.2,East,3.5,-,N/A,,Unknown,80,2012-10-19 17:00:00
4:30 AM,48.2,44.6,87,29.80,6.2,East,3.5,-,N/A,,Unknown,100,2012-10-19 17:30:00
5:00 AM,45,43,88,29.79,,Calm,Calm,,,,,,2012-10-19 18:00:00
5:00 AM,44.6,42.8,93,29.80,6.2,Calm,Calm,-,N/A,,Unknown,0,2012-10-19 18:00:00
5:30 AM,44.6,42.8,93,29.80,6.2,NNW,3.5,-,N/A,,Unknown,330,2012-10-19 18:30:00
6:00 AM,45,44,92,29.81,,East,4.6,,,,,90,2012-10-19 19:00:00
6:00 AM,44.6,42.8,93,29.83,6.2,East,4.6,-,N/A,Fog,Shallow Fog,90,2012-10-19 19:00:00
6:30 AM,42.8,41.0,93,29.83,6.2,NE,3.5,-,N/A,Fog,Shallow Fog,40,2012-10-19 19:30:00
7:00 AM,44.6,44.6,100,29.83,-9999.0,North,3.5,-,N/A,,Clear,350,2012-10-19 20:00:00
7:30 AM,50.0,46.4,87,29.83,-9999.0,Calm,Calm,-,N/A,,Clear,0,2012-10-19 20:30:00
8:00 AM,54,49,77,29.84,,Calm,Calm,,,,,,2012-10-19 21:00:00
8:00 AM,53.6,48.2,82,29.86,-9999.0,Calm,Calm,-,N/A,,Clear,0,2012-10-19 21:00:00
8:30 AM,57.2,48.2,72,29.86,-9999.0,NE,3.5,-,N/A,,Clear,50,2012-10-19 21:30:00
9:00 AM,60,49,59,29.86,16,WNW,3.5,,,,Partly Cloudy,300,2012-10-19 22:00:00
9:00 AM,60.8,50.0,68,29.86,-9999.0,WNW,3.5,-,N/A,,Clear,300,2012-10-19 22:00:00
9:30 AM,64.4,51.8,64,29.86,6.2,NNW,4.6,-,N/A,,Unknown,340,2012-10-19 22:30:00
10:00 AM,69.8,50.0,49,29.86,-9999.0,NNW,9.2,-,N/A,,Clear,330,2012-10-19 23:00:00
10:30 AM,71.6,50.0,46,29.86,-9999.0,NNW,8.1,-,N/A,,Clear,330,2012-10-19 23:30:00
11:00 AM,75,46,24,29.84,,WNW,12.7,,,,,300,2012-10-20 00:00:00
11:00 AM,75.2,46.4,36,29.86,-9999.0,WNW,12.7,-,N/A,,Clear,300,2012-10-20 00:00:00
11:30 AM,75.2,44.6,34,29.86,-9999.0,NW,17.3,-,N/A,,Clear,320,2012-10-20 00:30:00
12:00 PM,75,46,25,29.83,,North,13.8,,,,,350,2012-10-20 01:00:00
12:00 PM,75.2,46.4,36,29.83,-9999.0,North,13.8,-,N/A,,Clear,350,2012-10-20 01:00:00
12:30 PM,77.0,39.2,26,29.83,-9999.0,NW,16.1,-,N/A,,Clear,310,2012-10-20 01:30:00
1:00 PM,77.0,39.2,26,29.83,-9999.0,NW,17.3,-,N/A,,Clear,310,2012-10-20 02:00:00
1:24 PM,77.0,39.2,26,29.83,-9999.0,WNW,17.3,28.8,N/A,,Clear,290,2012-10-20 02:24:00
1:30 PM,77.0,39.2,26,29.83,-9999.0,WNW,19.6,-,N/A,,Clear,300,2012-10-20 02:30:00
2:00 PM,77,42,19,29.83,,WNW,19.6,,,,,300,2012-10-20 03:00:00
2:00 PM,77.0,42.8,29,29.83,-9999.0,WNW,19.6,-,N/A,,Clear,300,2012-10-20 03:00:00
2:30 PM,77.0,42.8,29,29.83,-9999.0,WNW,19.6,-,N/A,,Clear,290,2012-10-20 03:30:00
3:00 PM,78,37,14,29.83,,WNW,20.7,,,,,290,2012-10-20 04:00:00
3:00 PM,77.0,37.4,24,29.83,-9999.0,WNW,20.7,-,N/A,,Clear,290,2012-10-20 04:00:00
3:30 PM,77.0,32.0,19,29.83,-9999.0,WNW,21.9,-,N/A,,Clear,290,2012-10-20 04:30:00
4:00 PM,77.0,33.8,21,29.83,-9999.0,WNW,20.7,-,N/A,,Clear,290,2012-10-20 05:00:00
4:30 PM,77.0,35.6,22,29.83,-9999.0,WNW,19.6,-,N/A,,Clear,290,2012-10-20 05:30:00
5:00 PM,76,31,11,29.83,,WNW,16.1,,,,,290,2012-10-20 06:00:00
5:00 PM,77.0,32.0,19,29.83,-9999.0,WNW,16.1,-,N/A,,Clear,290,2012-10-20 06:00:00
5:30 PM,75.2,32.0,21,29.83,-9999.0,NW,18.4,-,N/A,,Clear,320,2012-10-20 06:30:00
6:00 PM,73,31,12,29.84,,WNW,13.8,,,,,300,2012-10-20 07:00:00
6:00 PM,73.4,30.2,20,29.83,-9999.0,WNW,13.8,-,N/A,,Clear,300,2012-10-20 07:00:00
6:30 PM,71.6,33.8,25,29.86,6.2,NW,13.8,-,N/A,,Unknown,310,2012-10-20 07:30:00
7:00 PM,69.8,26.6,20,29.86,6.2,WNW,18.4,-,N/A,,Unknown,300,2012-10-20 08:00:00
7:30 PM,66.2,28.4,24,29.89,6.2,WNW,15.0,-,N/A,,Unknown,300,2012-10-20 08:30:00
8:00 PM,66,29,15,29.88,,WNW,13.8,,,,,290,2012-10-20 09:00:00
8:00 PM,66.2,28.4,24,29.89,6.2,WNW,13.8,-,N/A,,Unknown,290,2012-10-20 09:00:00
8:30 PM,64.4,33.8,32,29.92,6.2,West,10.4,-,N/A,,Unknown,280,2012-10-20 09:30:00
9:00 PM,65,36,22,29.92,,West,11.5,,,,,280,2012-10-20 10:00:00
9:00 PM,64.4,35.6,34,29.92,6.2,West,11.5,-,N/A,,Unknown,280,2012-10-20 10:00:00
9:30 PM,64.4,35.6,34,29.95,6.2,WNW,13.8,-,N/A,,Unknown,290,2012-10-20 10:30:00
10:00 PM,64.4,37.4,37,29.95,6.2,WNW,13.8,-,N/A,,Unknown,290,2012-10-20 11:00:00
10:30 PM,62.6,37.4,39,29.95,6.2,West,6.9,-,N/A,,Unknown,280,2012-10-20 11:30:00
11:00 PM,61,36,28,29.95,,WNW,9.2,,,,,290,2012-10-20 12:00:00
11:00 PM,60.8,35.6,39,29.95,6.2,WNW,9.2,-,N/A,,Unknown,290,2012-10-20 12:00:00
11:30 PM,59.0,37.4,45,29.98,6.2,WNW,10.4,-,N/A,,Unknown,300,2012-10-20 12:30:00